Location: Gwatt
(46.7204°N, 7.6223°E)
Time: 01:16:23
(UTC+00:00)

Envisat - Pass Details

Date: 25 November 2020
Orbit: 764 x 766 km, 98.1° (Epoch: 19 January)

Event Time Altitude Azimuth Distance (km) Brightness Sun altitude
Rises 05:40:20 0° 12° (NNE) 3,246 6.2 -11.1°
Reaches altitude 10° 05:42:39 10° 11° (NNE) 2,315 5.4 -10.7°
Maximum altitude 05:47:45 80° 286° (WNW) 784 3.0 -9.9°
Drops below altitude 10° 05:52:49 10° 200° (SSW) 2,297 5.5 -9.1°
Sets 05:55:07 0° 199° (SSW) 3,219 6.3 -8.7°
